Location: Ab? ar R?sh Ba?r?
(24.1861°N, 32.8847°E)
Time: 23:29:25
(UTC+00:00)

CZ-3 Stage 3 - Pass Details

Date: 24 October 2021
Orbit: 510 x 34673 km, 30.5° (Epoch: 05 December)

Event Time Altitude Azimuth Distance (km) Brightness Sun altitude
Rises 15:19:34 0° 269° (W) 20,266 12.0 -2.0°
Reaches altitude 10° 15:55:01 10° 276° (W) 10,764 9.8 -9.9°
Maximum altitude 16:19:20 58° 355° (N) 1,589 4.1 -15.4°
Enters shadow 16:22:35 23° 68° (ENE) 1,823 3.9 -16.1°
